Location: Bishopstone
(51.0167°N, 1.9000°W)
Time: 13:38:56
(UTC+00:00)

Cosmos 2341 Rocket - Pass Details

Date: 16 September 2019
Orbit: 967 x 1005 km, 82.9° (Epoch: 14 October)

Event Time Altitude Azimuth Distance (km) Brightness Sun altitude
Rises 19:08:20 0° 353° (N) 3,704 7.3 -8.3°
Reaches altitude 10° 19:11:02 10° 0° (N) 2,746 6.6 -8.7°
Maximum altitude 19:16:58 42° 71° (ENE) 1,362 4.4 -9.6°
Drops below altitude 10° 19:22:49 10° 141° (SE) 2,710 5.8 -10.5°
Enters shadow 19:23:53 - 145° (SE) 3,085 6.1 -10.6°
